• In Hungary
  • List of Countries
  • For 7 days
  • Water Temperature
  • Satellite Maps
  • Weather Map
  • News
  • Weather Widgets
  • user-avatar
    Login

    Hourly Weather Calatayud

    Today, 21 January, Sunday

    Time Temperature Precipitation Wind Pressure Humidity
    00:00 +7°C° 0 mm 6 mps 720 mmHg 78%
    01:00 +7°C° 0 mm 5 mps 720 mmHg 80%
    02:00 +7°C° 0 mm 5 mps 720 mmHg 83%
    03:00 +7°C° 0 mm 5 mps 720 mmHg 85%
    04:00 +7°C° 0 mm 5 mps 720 mmHg 86%
    05:00 +7°C° 0 mm 5 mps 720 mmHg 86%
    06:00 +7°C° 0 mm 5 mps 720 mmHg 87%
    07:00 +8°C° 0 mm 5 mps 720 mmHg 85%
    08:00 +8°C° 0 mm 5 mps 720 mmHg 83%
    09:00 +9°C° 0 mm 5 mps 721 mmHg 81%
    10:00 +10°C° 0 mm 6 mps 721 mmHg 76%
    11:00 +13°C° 0 mm 6 mps 721 mmHg 70%
    12:00 +15°C° 0 mm 7 mps 721 mmHg 64%
    13:00 +15°C° 0 mm 7 mps 721 mmHg 63%
    14:00 +15°C° 0 mm 7 mps 721 mmHg 63%
    15:00 +15°C° 0 mm 7 mps 721 mmHg 63%
    16:00 +14°C° 0 mm 6 mps 721 mmHg 69%
    17:00 +12°C° 0 mm 5 mps 721 mmHg 76%
    18:00 +11°C° 0 mm 4 mps 721 mmHg 83%
    19:00 +10°C° 0 mm 3 mps 721 mmHg 85%
    20:00 +10°C° 0 mm 3 mps 722 mmHg 87%
    21:00 +9°C° 0 mm 2 mps 722 mmHg 89%
    22:00 +9°C° 0 mm 2 mps 722 mmHg 89%
    23:00 +8°C° 0 mm 2 mps 722 mmHg 89%

    Tomorrow, 22 January, Monday

    Time Temperature Precipitation Wind Pressure Humidity
    00:00 +8°C° 0 mm 2 mps 722 mmHg 89%
    01:00 +8°C° 0 mm 2 mps 722 mmHg 89%
    02:00 +7°C° 0 mm 2 mps 722 mmHg 89%
    03:00 +7°C° 0 mm 2 mps 721 mmHg 89%
    04:00 +7°C° 0 mm 2 mps 721 mmHg 89%
    05:00 +7°C° 0 mm 2 mps 721 mmHg 90%
    06:00 +7°C° 0 mm 2 mps 721 mmHg 90%
    07:00 +7°C° 0 mm 3 mps 721 mmHg 87%
    08:00 +8°C° 0 mm 3 mps 721 mmHg 85%
    09:00 +9°C° 0 mm 3 mps 721 mmHg 82%
    10:00 +11°C° 0 mm 4 mps 721 mmHg 74%
    11:00 +12°C° 0 mm 4 mps 721 mmHg 67%
    12:00 +14°C° 0 mm 5 mps 721 mmHg 59%
    13:00 +14°C° 0 mm 5 mps 721 mmHg 59%
    14:00 +15°C° 0 mm 5 mps 721 mmHg 59%
    15:00 +15°C° 0 mm 5 mps 720 mmHg 59%
    16:00 +13°C° 0 mm 4 mps 721 mmHg 66%
    17:00 +11°C° 0 mm 3 mps 721 mmHg 74%
    18:00 +10°C° 0 mm 3 mps 721 mmHg 82%
    19:00 +9°C° 0 mm 3 mps 721 mmHg 83%
    20:00 +9°C° 0 mm 2 mps 721 mmHg 84%
    21:00 +8°C° 0 mm 2 mps 722 mmHg 85%
    22:00 +8°C° 0 mm 2 mps 722 mmHg 85%
    23:00 +8°C° 0 mm 2 mps 722 mmHg 85%

    Day after tomorrow, 23 January, Tuesday

    Time Temperature Precipitation Wind Pressure Humidity
    00:00 +7°C° 0 mm 2 mps 722 mmHg 85%
    01:00 +7°C° 0 mm 2 mps 721 mmHg 85%
    02:00 +7°C° 0 mm 2 mps 721 mmHg 85%
    03:00 +7°C° 0 mm 2 mps 721 mmHg 85%
    04:00 +7°C° 0 mm 2 mps 721 mmHg 85%
    05:00 +7°C° 0 mm 2 mps 721 mmHg 85%
    06:00 +7°C° 0 mm 2 mps 721 mmHg 84%
    07:00 +8°C° 0 mm 2 mps 721 mmHg 81%
    08:00 +9°C° 0 mm 2 mps 721 mmHg 77%
    09:00 +10°C° 0 mm 2 mps 722 mmHg 73%
    10:00 +12°C° 0 mm 2 mps 722 mmHg 67%
    11:00 +14°C° 0 mm 2 mps 722 mmHg 61%
    12:00 +16°C° 0 mm 2 mps 721 mmHg 55%
    13:00 +16°C° 0 mm 2 mps 721 mmHg 53%
    14:00 +17°C° 0 mm 2 mps 721 mmHg 50%
    15:00 +18°C° 0 mm 1 mps 720 mmHg 48%
    16:00 +15°C° 0 mm 1 mps 720 mmHg 57%
    17:00 +13°C° 0 mm 1 mps 720 mmHg 65%
    18:00 +10°C° 0 mm 0 mps 720 mmHg 74%
    19:00 +10°C° 0 mm 0 mps 720 mmHg 75%
    20:00 +9°C° 0 mm 0 mps 721 mmHg 77%
    21:00 +9°C° 0 mm 0 mps 721 mmHg 78%
    22:00 +9°C° 0 mm 1 mps 721 mmHg 78%
    23:00 +9°C° 0 mm 1 mps 721 mmHg 77%

    24 January, Wednesday

    Time Temperature Precipitation Wind Pressure Humidity
    00:00 +9°C° 0 mm 1 mps 721 mmHg 76%
    01:00 +9°C° 0 mm 1 mps 720 mmHg 76%
    02:00 +8°C° 0 mm 1 mps 720 mmHg 76%
    03:00 +8°C° 0 mm 1 mps 720 mmHg 75%
    04:00 +8°C° 0 mm 1 mps 720 mmHg 75%
    05:00 +8°C° 0 mm 1 mps 720 mmHg 75%
    06:00 +7°C° 0 mm 1 mps 720 mmHg 75%
    07:00 +7°C° 0 mm 2 mps 720 mmHg 69%
    08:00 +9°C° 0 mm 2 mps 720 mmHg 63%
    09:00 +10°C° 0 mm 2 mps 721 mmHg 57%
    10:00 +13°C° 0 mm 2 mps 720 mmHg 50%
    11:00 +13°C° 0 mm 3 mps 720 mmHg 43%
    12:00 +16°C° 0 mm 3 mps 720 mmHg 37%
    13:00 +17°C° 0 mm 3 mps 719 mmHg 36%
    14:00 +17°C° 0 mm 3 mps 719 mmHg 35%
    15:00 +18°C° 0 mm 4 mps 718 mmHg 34%
    16:00 +16°C° 0 mm 3 mps 718 mmHg 42%
    17:00 +13°C° 0 mm 3 mps 718 mmHg 50%
    18:00 +11°C° 0 mm 3 mps 718 mmHg 58%
    19:00 +10°C° 0 mm 3 mps 718 mmHg 60%
    20:00 +10°C° 0 mm 3 mps 718 mmHg 62%
    21:00 +9°C° 0 mm 3 mps 719 mmHg 64%
    22:00 +9°C° 0 mm 3 mps 718 mmHg 65%
    23:00 +8°C° 0 mm 3 mps 718 mmHg 67%

    25 January, Thursday

    Time Temperature Precipitation Wind Pressure Humidity
    00:00 +8°C° 0 mm 3 mps 718 mmHg 68%
    01:00 +8°C° 0 mm 3 mps 718 mmHg 70%
    02:00 +7°C° 0 mm 3 mps 717 mmHg 72%
    03:00 +7°C° 0 mm 3 mps 717 mmHg 74%
    04:00 +7°C° 0 mm 3 mps 717 mmHg 75%
    05:00 +7°C° 0 mm 3 mps 717 mmHg 77%
    06:00 +7°C° 0 mm 3 mps 716 mmHg 78%
    07:00 +7°C° 0 mm 3 mps 716 mmHg 75%
    08:00 +8°C° 0 mm 3 mps 716 mmHg 71%
    09:00 +8°C° 0 mm 4 mps 716 mmHg 68%
    10:00 +10°C° 0.1 mm 4 mps 716 mmHg 64%
    11:00 +10°C° 0.1 mm 5 mps 716 mmHg 60%
    12:00 +11°C° 0.1 mm 6 mps 716 mmHg 56%
    13:00 +10°C° 0.3 mm 6 mps 715 mmHg 61%
    14:00 +10°C° 0.3 mm 5 mps 714 mmHg 66%
    15:00 +9°C° 0.3 mm 5 mps 714 mmHg 70%
    16:00 +9°C° 0.3 mm 5 mps 714 mmHg 74%
    17:00 +8°C° 0.3 mm 5 mps 714 mmHg 77%
    18:00 +8°C° 0.3 mm 5 mps 714 mmHg 80%
    19:00 +7°C° 0.8 mm 5 mps 714 mmHg 79%
    20:00 +5°C° 0.8 mm 6 mps 715 mmHg 78%
    21:00 +4°C° 0.8 mm 7 mps 715 mmHg 77%
    22:00 +4°C° 0.2 mm 7 mps 715 mmHg 77%
    23:00 +3°C° 0.2 mm 6 mps 715 mmHg 77%

    26 January, Friday

    Time Temperature Precipitation Wind Pressure Humidity
    00:00 +2°C° 0.2 mm 5 mps 715 mmHg 76%
    01:00 +2°C° 0 mm 5 mps 715 mmHg 77%
    02:00 +2°C° 0 mm 5 mps 715 mmHg 78%
    03:00 +1°C° 0 mm 5 mps 715 mmHg 79%
    04:00 +1°C° 0 mm 5 mps 715 mmHg 80%
    05:00 +1°C° 0 mm 6 mps 715 mmHg 81%
    06:00 +1°C° 0 mm 6 mps 716 mmHg 82%
    07:00 0°C° 0 mm 7 mps 716 mmHg 79%
    08:00 0°C° 0 mm 7 mps 716 mmHg 76%
    09:00 +1°C° 0 mm 8 mps 716 mmHg 72%
    10:00 +2°C° 0 mm 8 mps 717 mmHg 68%
    11:00 +3°C° 0 mm 9 mps 717 mmHg 63%
    12:00 +5°C° 0 mm 9 mps 717 mmHg 58%
    13:00 +5°C° 0.1 mm 9 mps 717 mmHg 58%
    14:00 +5°C° 0.1 mm 9 mps 717 mmHg 59%
    15:00 +5°C° 0.1 mm 9 mps 716 mmHg 60%
    16:00 +4°C° 0 mm 8 mps 717 mmHg 65%
    17:00 +3°C° 0 mm 7 mps 717 mmHg 69%
    18:00 +3°C° 0 mm 6 mps 718 mmHg 74%
    19:00 +2°C° 0 mm 6 mps 718 mmHg 77%
    20:00 +2°C° 0 mm 7 mps 719 mmHg 80%
    21:00 0°C° 0 mm 7 mps 719 mmHg 82%
    22:00 0°C° 0 mm 7 mps 720 mmHg 83%
    23:00 0°C° 0 mm 7 mps 720 mmHg 83%
    Show more